www.pogodaiklimat.ru
ПОГОДА в Улан-Баторе
Время
(UTC), дата
15 15.01
18 15.01
21 15.01
00 16.01
03 16.01
06 16.01
09 16.01
12 16.01
15 16.01
18 16.01
21 16.01
00 17.01
03 17.01
06 17.01
09 17.01
12 17.01
15 17.01
18 17.01
21 17.01
00 18.01
03 18.01
06 18.01
09 18.01
12 18.01
15 18.01
18 18.01
21 18.01
00 19.01
03 19.01
06 19.01
09 19.01
12 19.01
15 19.01
18 19.01
21 19.01
00 20.01
03 20.01
06 20.01
09 20.01
12 20.01
15 20.01
18 20.01
21 20.01
00 21.01
03 21.01
06 21.01
09 21.01
12 21.01
15 21.01
18 21.01
21 21.01
00 22.01
03 22.01
06 22.01
09 22.01
12 22.01
Ветер
(напр.,м/с)
Видим. Явления Облачность Т
(С)
Тd
(С)
f
(%)
Тe
(С)
Тes
(С)
Комфортность P
(гПа)
Po
(гПа)
Тmin
(С)
Tmax
(С)
R
(мм)
R24
(мм)
S
(см)
В 2 н/о дым ясно -12.3 -24.2 69 -20 -20 по сезону 1045.1 844.4
штиль 0 н/о дым ясно -21.2 -24.9 72 -21 -21 по сезону 1045.3 875.6
В 3 н/о дым ясно -12.5 -25.6 71 -22 -22 по сезону 1044.0 843.1
В 2 н/о дым ясно -21.4 -25.4 70 -27 -27 по сезону 1043.4 873.9 -22.0 4
В 3 2000 м дым 3/0
[Ci]
-13.1 -24.1 57 -25 -23 по сезону 1040.5 842.5
ЮВ 3 4000 м дым 3/0
[Ci fib]
-13.0 -21.3 50 -19 -17 по сезону 1034.7 871.6
В 2 4000 м дым 5/0
[Ci]
-10.1 -20.8 54 -14 -14 по сезону 1034.4 840.1
штиль 0 н/о дым ясно -17.6 -22.8 64 -18 -18 по сезону 1038.1 871.8 -12.1
Ю 3 н/о дым ясно -10.2 -23.5 72 -20 -20 по сезону 1039.6 840.9
штиль 0 н/о дым ясно -21.7 -25.2 73 -22 -22 по сезону 1040.1 871.0
Ю 4 н/о дым 4/0
[Cs]
-13.9 -25.0 72 -21 -21 по сезону 1039.2 839.2
штиль 0 н/о дым 8/0 2000 м
[Ac lent Ci]
-21.6 -25.3 72 -22 -22 по сезону 1039.4 870.5 -22.1 4
ЮЗ 2 1000 м дым ясно -16.0 -23.4 62 -21 -18 по сезону 1037.0 839.4
З 1 1000 м дым 3/0 2000 м
[Ac lent Ci]
-13.5 -19.4 61 -16 -13 по сезону 1031.5 868.6
штиль 0 1000 м дым 8/0 2000 м
[Ac trans Cs]
-13.5 -19.0 63 -14 -14 по сезону 1029.9 867.3
штиль 0 н/о дым 8/0 2000 м
[Ac lent Cs]
-17.7 -21.4 73 -18 -18 по сезону 1033.3 867.7 -12.3
Ю 3 н/о дым 3/0
[Ci]
-13.1 -22.9 75 -20 -20 по сезону 1033.7 835.8
штиль 0 н/о дым 9/0 2000 м
[Ac As]
-19.2 -22.4 76 -19 -19 по сезону 1032.7 866.3
Ю 6 н/о слаб. снег туман 10/0 2000 м
[As op]
-16.4 -23.8 80 -21 -21 по сезону 1032.8 833.4
штиль 0 н/о дым {снег} 3/0
[Ci]
-23.7 -26.6 77 -24 -24 прохладно 1035.3 865.7 -23.7 0.0 4
Ю 5 500 м дым 9/0 2000 м
[Ac As Cs]
-19.7 -23.0 76 -20 -18 по сезону 1033.8 835.0
З 2 2000 м дым 3/0
[Ci]
-15.3 -20.0 67 -20 -18 прохладно 1028.4 865.0
З 2 2000 м дым 3/0
[Ci]
-14.7 -21.5 56 -20 -20 прохладно 1026.8 864.0
штиль 0 н/о дым 9/0 2000 м
[As trans]
-15.3 -21.1 61 -15 -15 по сезону 1027.4 864.1 -14.3
Ю 7 н/о в посл. час снег 10/0 2000 м
[As op]
-12.5 -19.8 70 -16 -16 по сезону 1026.0 831.7
штиль 0 н/о дым {снег} 9/0 2000 м
[Ac As]
-18.9 -22.1 76 -19 -19 по сезону 1028.6 863.0
ЮЗ 9 н/о дым 4/0 2000 м
[Ac lent Ci]
-13.4 -22.5 77 -20 -20 по сезону 1030.2 832.6
штиль 0 н/о дым 1/0
[Ci fib]
-19.3 -23.1 72 -19 -19 по сезону 1032.4 866.0 -20.1 0.0 4
ЮЗ 8 500 м слаб. снег 10/0 2000 м
[As op]
-17.0 -19.3 79 -17 -16 по сезону 1033.1 837.0
ЮЗ 3 2000 м слаб. снег 9/0 2000 м
[As op]
-12.6 -25.8 32 -19 -18 холодно 1029.5 867.5
ЮЗ 5 50 км {снег} 3/0
[Ac lent Ci fib]
-14.1 -19.1 56 -17 -17 прохладно 1030.0 838.2
штиль 0 н/о дым {снег} ясно -16.4 -20.8 69 -16 -16 по сезону 1033.7 868.8 -11.1 0.2
ЮВ 3 н/о дым ясно -15.8 -22.8 76 -20 -20 прохладно 1034.6 836.8
штиль 0 н/о дым ясно -20.8 -24.2 74 -21 -21 прохладно 1033.6 866.1
В 7 н/о дым ясно -17.8 -25.9 73 -26 -26 очень
холодно
1032.6 832.5
штиль 0 н/о дым 3/0 2000 м
[Ac lent]
-21.7 -25.5 71 -22 -22 по сезону 1030.1 862.6 -22.8 4
В 5 10 км дым 8/0 2000 м
[As trans]
-17.5 -23.7 66 -25 -23 по сезону 1026.9 830.2
В 2 10 км дым 9/0 2000 м
[As trans]
-14.8 -20.7 61 -20 -18 по сезону 1021.7 859.6
ЮВ 2 10 км дым 4/0 2000 м
[Ac lent]
-15.1 -20.4 56 -14 -14 тепло 1019.6 827.8
штиль 0 н/о дым 3/0 2000 м
[Ac lent Ci fib]
-18.2 -22.7 68 -18 -18 по сезону 1024.6 860.1 -13.0
ЮЗ 7 н/о дым ясно -10.1 -23.5 73 -20 -20 по сезону 1027.5 830.7
штиль 0 н/о дым ясно -21.1 -24.1 77 -21 -21 по сезону 1029.7 862.6
ЮЗ 8 н/о дым ясно -14.9 -25.8 77 -23 -23 по сезону 1032.5 832.8
штиль 0 н/о дым ясно -23.4 -26.4 76 -23 -23 по сезону 1034.9 865.6 -23.7 4
штиль 0 200 м дым 6/0
[Cs]
-18.8 -22.9 70 -19 -16 по сезону 1033.6 867.3
ЮВ 1 1000 м дым 8/0
[Cs]
-13.7 -20.0 59 -16 -13 по сезону 1028.7 866.2
В 1 1000 м дым 6/0
[Cs]
-13.6 -19.9 66 -15 -15 по сезону 1030.0 835.3
штиль 0 н/о дым 3/0
[Ci]
-17.1 -20.8 73 -17 -17 по сезону 1032.1 867.0 -12.1
ЮВ 2 н/о дым ясно -19.1 -23.4 69 -25 -25 по сезону 1032.2 865.9
штиль 0 н/о дым ясно -20.3 -24.7 68 -20 -20 по сезону 1031.2 864.4
ЮВ 3 н/о дым 4/0
[Ci]
-14.3 -24.3 65 -19 -19 тепло 1028.8 831.8
штиль 0 н/о дым {снег} 6/0 2000 м
[Ac trans Ci fib]
-19.4 -22.4 77 -19 -19 тепло 1029.3 863.3 -20.7 0.0 4
Ю 6 200 м дым 9/0
[Cs]
-14.8 -20.2 70 -19 -17 по сезону 1028.0 833.2
З 3 2000 м дым ясно -12.0 -18.4 59 -18 -16 по сезону 1026.4 865.2
ЮЗ 9 10 км дым ясно -13.1 -18.3 57 -17 -17 по сезону 1027.8 836.0
штиль 0 н/о дым ясно -16.3 -20.5 70 -16 -16 по сезону 1034.0 869.1 -10.2
Местоположение метеостанции Улан-Батор (Монголия): широта 47.92 долгота 106.85 высота над уровнем моря 1306 м.
В архиве по умолчанию представлена погода в Улан-Баторе за последнюю неделю. Архивные данные за месяц целиком и за предыдущие месяцы, начиная с января 2011 года, Вы можете получить, выбрав интересующий диапазон дат из раскрывающегося списка и нажав кнопку "Найти!".
*Определитесь, кто Вы:
Внимание! Время в таблицах - всемирное. Для получения местного времени необходимо прибавить поправку, которая равна 8 ч.
Смотрите также архив погоды в соседних городах и на ближайших метеорологических станциях:
Партнеры нашего сайта:      
Пояснения к столбцам:
  • Ветер - указаны скорость ветра в м/с - средняя за 10 мин, порывы в срок и между сроками (в фигурных скобках) и направление, откуда дует ветер: С - северный,
  • СВ - северо-восточный, В - восточный, ЮВ - юго-восточный, Ю - южный, ЮЗ - юго-западный, З - западный, СЗ - северо-западный.
  • Видимость - горизонтальная дальность видимости в метрах или километрах. При видимости от 1 до 10 км при отсутствии осадков обычно наблюдается дымка, при ухудшении видимости до 1 км и менее - туман. В сухую погоду видимость может ухудшаться дымом, пылью или мглою.
  • Явления - указаны атмосферные явления, наблюдавшиеся в срок или в последний час перед сроком; фигурными скобками обозначены явления, наблюдавшиеся между сроками (за 1-3 часа до срока); квадратными скобками обозначены град или гололедные отложения с указанием их диаметра в мм.
  • Облачность - указаны через наклонную черту общая и нижняя облачность в баллах и высота нижней границы облаков в метрах; квадратными скобками обозначены формы облаков: Ci - перистые, Cs - перисто-слоистые, Cc - перисто-кучевые, Ac - высококучевые, As - высокослоистые, Sc - слоисто-кучевые, Ns - слоисто-дождевые, Cu - кучевые, Cb - кучево-дождевые. Подробнее классификацию облаков см. в Атласе облаков (PDF).
  • T - Температура воздуха - температура, измеренная на высоте 2 м над землей.
  • Td - Температура точки росы - температура, при понижении до которой содержащийся в воздухе водяной пар достигнет насыщения.
  • f - Относительная влажность воздуха - влажноcть воздуха, измеренная на высоте 2 м над землей.
  • Te - Эффективная температура - температура, которую ощущает одетый по сезону человек в тени. Характеристика душности погоды. При расчете учитывается влияние влажности воздуха и скорости ветра на теплоощущения человека.
  • Tes - Эффективная температура на солнце - температура, которую ощущает человек, с поправкой на солнечный нагрев. Характеристика знойности погоды. Зависит от высоты солнца над горизонтом, облачности и скорости ветра. Ночью, в пасмурную погоду, а также при ветре 12 м/с и более поправка равна нулю.
  • P - Атмосферное давление - приведенное к уровню моря атмосферное давление.
  • Po - Атмосферное давление - измеренное на уровне метеостанции атмосферное давление.
  • Tmin - Минимальная температура - минимум температуры воздуха на высоте 2 м над землей.
  • Tmax - Максимальная температура - максимум температуры воздуха на высоте 2 м над землей.
  • R - Количество осадков - Количество выпавших осадков за период времени, мм. При наведении курсора мыши на число - период времени, за который выпало указанное количество осадков.
  • R24 - Количество осадков - Количество выпавших осадков за 24 часа, мм.
  • S - Снежный покров - Высота снежного покрова, см. При наведении курсора мыши на число - состояние снежного покрова и степень покрытия местности в баллах.